This is the latest recevied weather packets stored in our database for station/object K7DC. If no packets are shown the sender has not sent any weather packets the latest 10 day(s).
| Time | Temp. | Humidity | Pressure | Rain* | Wind** | Luminosity | Snow |
|---|---|---|---|---|---|---|---|
| 1777517497 | 24.44° C | 12% | 1013.7 hPa | 0 mm | - | 0 W/m² | - |
| 1777517195 | 23.89° C | 12% | 1013.7 hPa | 0 mm | - | 0 W/m² | - |
| 1777516893 | 23.89° C | 14% | 1013.4 hPa | 0 mm | - | 0 W/m² | - |
| 1777516590 | 24.44° C | 15% | 1013.3 hPa | 0 mm | - | 0 W/m² | - |
| 1777516285 | 24.44° C | 16% | 1013 hPa | 0 mm | - | 0 W/m² | - |
| 1777515981 | 24.44° C | 15% | 1013.1 hPa | 0 mm | - | 0 W/m² | - |
| 1777515678 | 24.44° C | 14% | 1013.2 hPa | 0 mm | - | 0 W/m² | - |
| 1777515375 | 25° C | 14% | 1013.2 hPa | 0 mm | - | 0 W/m² | - |
| 1777515071 | 25° C | 14% | 1013.2 hPa | 0 mm | - | 1 W/m² | - |
| 1777514768 | 25° C | 14% | 1013.4 hPa | 0 mm | - | 1 W/m² | - |
| 1777514465 | 25° C | 13% | 1013.2 hPa | 0 mm | - | 2 W/m² | - |
| 1777514162 | 25.56° C | 14% | 1013.1 hPa | 0 mm | - | 3 W/m² | - |
| 1777513859 | 25.56° C | 14% | 1012.8 hPa | 0 mm | - | 4 W/m² | - |
| 1777513556 | 25.56° C | 14% | 1012.7 hPa | 0 mm | - | 7 W/m² | - |
| 1777513253 | 26.11° C | 13% | 1012.9 hPa | 0 mm | - | 10 W/m² | - |
| 1777512948 | 26.11° C | 13% | 1012.6 hPa | 0 mm | - | 11 W/m² | - |
| 1777512645 | 26.67° C | 12% | 1012.7 hPa | 0 mm | - | 17 W/m² | - |
| 1777512039 | 26.67° C | 12% | 1012.6 hPa | 0 mm | - | 38 W/m² | - |
| 1777511738 | 27.22° C | 11% | 1012.8 hPa | 0 mm | - | 41 W/m² | - |
| 1777511434 | 27.22° C | 11% | 1012.7 hPa | 0 mm | - | 40 W/m² | - |
| 1777511131 | 27.22° C | 11% | 1012.6 hPa | 0 mm | - | 39 W/m² | - |
| 1777510524 | 27.78° C | 11% | 1012.9 hPa | 0 mm | - | 62 W/m² | - |
| 1777509309 | 28.33° C | 11% | 1012.9 hPa | 0 mm | - | 145 W/m² | - |
| 1777508400 | 28.33° C | 11% | 1012.9 hPa | 0 mm | - | 153 W/m² | - |
| 1777507491 | 28.89° C | 11% | 1012.9 hPa | 0 mm | - | 139 W/m² | - |
* Rain latest hour (hover to see other rain measurements)
** Current wind speed in m/s (hover to see current wind gust speed)